Location: Eaton Estates
(41.3089°N, 82.0057°W)
Time: 00:26:38
(UTC+00:00)

Cosmos 1825 - Pass Details

Date: 17 June 2021
Orbit: 501 x 506 km, 82.5° (Epoch: 02 August)

Event Time Altitude Azimuth Distance (km) Brightness Sun altitude
Exits shadow 07:27:56 28° 280° (W) 975 3.4 -19.7°
Maximum altitude 07:28:04 28° 284° (WNW) 973 3.4 -19.7°
Drops below altitude 10° 07:31:23 10° 345° (NNW) 1,727 5.5 -19.4°
Sets 07:33:44 0° 357° (N) 2,617 6.7 -19.1°
